SCP
0 0 0 0 0 0 0 0 0 0 0 0 0 0 0 0 0 0 0 0 0 0 0 0 0 0 0 0 0 0 0 0 0 0 0 0 0 0 0 0 0 0 0
0 0 0 0 0 0 0 0 0 0 0 0 0 0 0 0 0 0 0 0 0 0 0 0 0 0 0 0 0 0 0 0 0 0 0 0 0 0 0 0 0 0 0
0 0 0 0 0 0 0 0 0 0 0 0 0 0 0 0 0 0 0 0 0 0 0 0 0 0 0 0 0 0 0 0 0 0 0 0 0 0 0 0 0 0 0
0 0 0 0 0 0 0 0 0 0 0 0 0 0 0 0 0 0 0 0 0 0 0 0 0 0 0 0 0 0 0 0 0 0 0 0 0 0 0 0 0 0 0
0 0 0 0 0 0 0 0 0 0 0 0 0 0 0 0 0 0 0 0 0 0 0 0 0 0 0 0 0 0 0 0 0 0 0 0 0 0 0 0 0 0 0
0 0 0 0 0 0 0 0 0 0 0 0 0 0 0 0 0 0 0 0 0 0 0 0 0 0 0 0 0 0 0 0 0 0 0 0 0 0 0 0 0 0 0
0 0 0 0 0 0 0 0 0 0 0 0 0 0 0 0 0 0 0 0 0 0 0 0 0 0 0 0 0 0 0 0 0 0 0 0 0 0 0 0 0 0 0
0 0 0 0 0 0 0 0 0 0 0 0 0 0 0 0 0 0 0 0 0 0 0 0 0 0 0 0 0 0 0 0 0 0 0 0 0 0 0 0 0 0 0
0 0 0 0 0 0 0 0 0 0 0 0 0 0 0 0 0 0 0 0 0 0 0 0 0 0 0 0 0 0 0 0 0 0 0 0 0 0 0 0 0 0 0
0 0 0 0 0 0 0 0 0 0 0 0 0 0 0 0 0 0 0 0 0 0 0 0 0 0 0 0 0 0 0 0 0 0 0 0 0 0 0 0 0 0 0
0 0 0 0 0 0 0 0 0 0 0 0 0 0 0 0 0 0 0 0 0 0 0 0 0 0 0 0 0 0 0 0 0 0 0 0 0 0 0 0 0 0 0
0 0 0 0 0 0 0 0 0 0 0 0 0 0 0 0 0 0 0 0 0 0 0 0 0 0 0 0 0 0 0 0 0 0 0 0 0 0 0 0 0 0 0
0 0 0 0 0 0 0 0 0 0 0 0 0 0 0 0 0 0 0 0 0 0 0 0 0 0 0 0 0 0 0 0 0 0 0 0 0 0 0 0 0 0 0
0 0 0 0 0 0 0 0 0 0 0 0 0 0 0 0 0 0 0 0 0 0 0 0 0 0 0 0 0 0 0 0 0 0 0 0 0 0 0 0 0 0 0
0 0 0 0 0 0 0 0 0 0 0 0 0 0 0 0 0 0 0 0 0 0 0 0 0 0 0 0 0 0 0 0 0 0 0 0 0 0 0 0 0 0 0
0 0 0 0 0 0 0 0 0 0 0 0 0 0 0 0 0 0 0 0 0 0 0 0 0 0 0 0 0 0 0 0 0 0 0 0 0 0 0 0 0 0 0
0 0 0 0 0 0 0 0 0 0 0 0 0 0 0 0 0 0 0 0 0 0 0 0 0 0 0 0 0 0 0 0 0 0 0 0 0 0 0 0 0 0 0
0 0 0 0 0 0 0 0 0 0 0 0 0 0 0 0 0 0 0 0 0 0 0 0 0 0 0 0 0 0 0 0 0 0 0 0 0 0 0 0 0 0 0
0 0 -0 -0 0 0 0 0 0 0 0 0 0 0 0 0 0 0 0 0 0 0 0 0 0 0 0 0 0 0 0 0 0 0 0 0 0 0 0 0 0 0 0
0 0 0 0 0 0 0 0 0 0 0 0 0 0 0 0 0 0 0 0 0 0 0 0 0 0 0 0 0 0 0 0 0 0 0 0 0 0 0 0 0 0 0
0 0 0 0 0 0 0 0 0 0 0 0 0 0 0 0 0 0 0 0 0 0 0 0 0 0 0 0 0 0 0 0 0 0 0 0 0 0 0 0 0 0 0
0 0 0 0 0 0 0 0 0 0 0 0 0 0 0 0 0 0 0 0 0 0 0 0 0 0 0 0 0 0 0 0 0 0 0 0 0 0 0 0 0 0 0
0 0 0 0 0 0 0 0 0 0 0 0 0 0 0 0 0 0 0 0 0 0 0 0 0 0 0 0 0 0 0 0 0 0 0 0 0 0 0 0 0 0 0
0 0 0 0 0 0 0 0 0 0 0 0 0 0 0 0 0 0 0 0 0 0 0 0 0 0 0 0 0 0 0 0 0 0 0 0 0 0 0 0 0 0 0
0 0 0 0 0 0 0 0 0 0 0 0 0 0 0 0 0 0 0 0 0 0 0 0 0 0 0 0 0 0 0 0 0 0 0 0 0 0 0 0 0 0 0
0 0 0 0 0 0 0 0 0 0 0 0 0 0 0 0 0 0 0 0 0 0 0 0 0 0 0 0 0 0 0 0 0 0 0 0 0 0 0 0 0 0 0
Wind_Speed
1 1 1 1 1 1 2 2 3 3 3 3 2 2 3 3 3 2 3 6 7 7 8 8 9 9 9 10 10 10 10 10 10 10 10 10 11 11 12 12 11 12 13
1 1 1 1 1 1 1 1 2 2 2 2 3 3 3 3 3 3 3 4 6 7 8 8 9 10 10 11 11 11 11 11 11 11 11 12 12 13 13 13 13 12 13
1 1 1 1 1 1 1 1 2 2 2 3 3 4 3 3 3 4 3 3 3 6 7 9 10 11 11 11 11 12 12 12 12 12 13 13 13 14 14 13 14 14 14
1 1 1 1 1 1 1 1 1 2 2 3 3 3 3 3 4 4 3 3 2 3 5 9 10 11 12 12 13 13 13 13 14 14 14 14 15 15 15 15 14 15 15
1 1 1 0 1 1 1 1 1 1 2 3 4 3 3 3 4 4 3 3 3 3 3 6 9 11 12 13 14 14 14 14 14 14 15 15 16 16 16 16 15 15 16
1 1 0 0 1 1 1 1 2 2 1 3 4 4 4 4 3 3 4 3 3 4 4 4 4 7 11 14 14 15 15 15 15 15 16 16 16 16 16 17 17 17 17
1 1 0 0 1 0 1 1 1 2 2 2 2 4 4 3 3 3 3 3 3 4 4 4 4 4 5 12 14 15 15 15 16 16 16 16 16 16 17 17 18 17 18
1 0 0 0 0 0 1 1 1 1 2 2 1 2 4 4 3 4 3 3 3 3 3 5 4 4 4 4 8 14 15 16 17 17 16 16 17 18 18 17 18 18 18
1 1 1 0 1 0 1 1 1 1 1 2 0 0 1 3 5 3 3 3 3 3 4 4 5 5 5 4 5 9 14 17 17 16 16 17 17 18 19 18 18 19 19
2 2 1 1 1 1 1 2 1 1 1 2 1 1 2 2 3 6 4 3 4 5 5 5 5 5 6 4 7 12 15 15 16 16 17 17 18 18 19 19 18 19 19
2 2 2 2 2 2 2 2 2 2 2 2 2 1 2 2 3 4 8 7 4 4 4 5 5 5 5 5 5 9 15 15 16 17 17 18 18 18 19 18 18 18 19
2 2 2 2 2 2 3 3 3 3 3 3 2 2 2 2 3 3 6 9 8 6 5 4 5 5 5 4 7 13 15 16 16 17 17 18 18 19 19 19 19 19 18
2 3 2 2 3 3 3 3 3 3 3 3 3 3 3 3 3 3 5 8 9 7 5 4 4 4 5 4 5 13 14 16 17 17 17 17 18 18 19 19 19 19 18
3 3 3 3 3 3 3 3 3 3 3 3 4 4 3 4 3 3 4 6 8 7 6 6 3 4 4 4 8 13 9 15 16 16 16 16 17 18 18 18 18 18 18
2 3 3 3 3 3 3 3 3 4 3 4 4 4 4 4 3 4 3 3 5 9 10 6 4 4 4 5 9 7 7 12 16 16 16 16 17 17 17 17 17 17 16
3 2 3 3 3 3 4 3 3 4 4 4 3 4 4 4 4 3 3 4 4 6 10 8 7 7 7 8 12 8 7 14 15 16 17 16 16 15 15 16 16 16 15
3 3 3 3 4 4 4 3 4 4 4 5 4 4 5 5 4 4 3 4 4 5 9 10 7 7 8 8 8 6 6 6 7 15 17 17 16 14 15 14 14 14 14
3 3 3 3 4 4 4 4 5 4 5 5 5 5 6 5 5 4 4 5 5 5 7 11 9 8 8 8 8 8 8 7 6 12 16 16 14 13 13 13 13 13 13
2 2 2 3 4 4 4 4 4 5 5 5 5 5 6 5 6 5 5 5 5 6 6 8 9 8 7 6 7 8 8 6 7 9 12 13 12 12 12 11 12 12 12
2 2 3 3 4 4 4 4 4 5 5 5 5 5 6 6 7 7 6 6 6 6 6 6 8 8 7 6 6 7 7 5 6 6 8 9 10 11 11 11 11 10 10
2 2 2 3 3 3 3 4 4 4 5 5 5 5 6 8 10 8 6 6 6 5 6 6 7 7 7 7 6 5 7 7 6 4 5 5 5 5 5 8 9 9 8
1 1 2 3 3 3 6 7 5 4 4 5 6 6 6 7 9 11 12 11 9 7 7 6 7 8 9 8 6 6 6 7 6 3 4 5 4 4 4 3 6 7 5
1 2 3 3 3 5 7 7 7 4 4 4 5 5 6 7 9 6 9 11 10 12 11 9 8 9 9 8 7 8 7 7 7 5 4 6 4 4 4 4 7 5 3
1 2 3 3 4 5 7 8 8 4 3 4 5 5 6 7 7 8 6 6 6 7 9 7 6 7 8 7 6 7 7 6 5 4 3 4 4 4 4 3 5 4 4
2 2 3 3 4 5 7 8 7 3 3 4 5 5 6 6 10 11 7 7 7 7 8 10 11 10 11 11 7 4 4 4 5 4 2 2 3 4 3 3 3 4 5
1 2 3 3 3 4 7 8 7 2 3 4 5 5 8 8 11 11 7 6 7 7 7 7 7 7 6 6 8 4 3 4 4 4 2 1 2 3 3 2 2 2 3
Wind_Direction
105 80 41 27 10 7 10 359 354 353 347 336 324 315 300 294 287 281 292 297 297 295 294 296 291 287 288 286 285 284 279 275 274 273 271 267 267 268 263 259 260 259 257
126 109 58 22 354 350 355 359 351 347 332 327 321 310 294 288 282 281 281 295 297 297 295 296 296 292 290 290 288 287 282 279 276 275 274 271 268 266 268 266 261 261 261
122 120 84 11 321 332 358 6 355 352 342 333 318 308 302 297 291 286 282 280 284 292 297 299 299 298 295 292 290 290 286 280 277 275 274 273 272 269 266 267 266 262 261
117 107 82 330 315 349 5 0 350 347 335 325 314 305 303 304 296 284 278 278 281 284 291 298 298 297 298 296 292 290 289 283 278 277 275 272 272 269 268 264 265 266 263
106 113 114 306 343 8 354 337 350 335 324 322 311 305 307 304 296 292 285 282 278 280 283 297 303 303 300 299 297 293 290 287 282 281 278 275 272 269 266 266 264 267 265
109 104 105 6 29 25 352 345 329 327 304 308 312 314 306 300 298 288 281 282 280 285 295 292 293 302 302 301 299 296 290 288 287 286 282 279 275 272 268 266 264 264 266
140 125 78 1 26 17 314 316 310 325 326 332 341 325 314 303 300 284 281 276 278 282 289 291 288 285 292 298 299 298 293 290 288 287 284 279 277 275 273 272 267 264 264
184 164 158 238 294 337 343 328 339 333 324 0 10 340 331 326 314 293 287 275 276 282 288 293 285 279 284 286 292 296 293 292 291 288 287 286 280 275 272 272 271 265 264
205 200 197 216 262 217 258 275 261 221 287 308 1 146 318 299 313 301 293 283 281 283 283 284 281 277 281 282 286 292 295 294 292 290 289 287 284 281 277 272 273 270 265
225 222 218 222 239 242 247 258 252 230 225 277 301 242 226 247 292 306 303 293 286 283 279 283 284 278 273 274 283 291 292 292 291 290 290 290 288 286 283 278 275 275 269
244 238 229 222 234 245 249 252 258 251 231 239 254 270 285 281 255 275 298 307 299 275 272 268 270 272 270 268 275 285 292 289 288 288 288 289 289 289 285 284 281 281 275
257 256 250 240 240 245 250 248 243 246 245 244 248 242 245 258 270 267 285 299 301 297 285 268 266 270 268 270 278 291 293 291 287 286 287 287 288 288 287 285 284 281 282
251 254 259 250 246 248 252 251 246 252 246 244 244 248 247 250 257 263 280 293 299 299 289 273 261 269 276 275 278 290 291 291 290 289 289 286 286 286 286 283 283 281 281
236 243 250 254 252 251 257 257 253 252 249 248 258 257 258 258 254 257 266 291 302 299 294 286 283 265 278 280 282 291 287 290 292 292 291 288 286 285 283 282 282 280 280
237 239 245 255 261 261 259 257 257 258 254 252 259 261 261 262 257 257 259 262 278 297 300 297 301 298 298 290 292 291 284 288 294 294 293 289 287 285 282 281 281 280 280
235 240 251 259 265 265 263 258 261 259 255 260 260 263 267 269 265 260 258 263 257 269 285 294 297 303 306 305 301 298 289 296 298 295 293 290 288 285 283 281 279 278 279
232 241 250 256 261 264 262 258 264 265 262 268 271 270 272 271 271 270 264 264 263 263 278 291 292 298 299 301 304 300 294 288 288 294 294 292 290 287 284 283 280 278 278
235 243 250 258 264 266 261 257 263 268 265 268 272 274 277 281 277 274 268 267 269 264 271 287 295 298 297 298 298 300 299 295 288 293 295 294 292 292 289 287 282 280 279
242 256 254 260 266 267 260 257 257 264 265 264 267 271 277 279 281 279 273 272 272 276 270 280 290 295 296 299 303 301 298 295 294 293 297 299 300 301 298 292 287 281 277
239 259 266 268 272 269 265 261 262 268 272 272 269 268 271 271 275 278 277 274 278 282 283 285 289 295 297 300 299 303 308 309 305 303 304 305 306 306 305 300 294 289 281
263 269 277 284 284 276 273 279 272 275 279 285 285 281 280 286 288 289 288 286 284 284 288 288 290 296 297 305 304 302 303 308 304 297 305 306 308 308 309 303 300 294 287
278 288 288 286 288 293 302 302 301 283 280 284 291 293 291 288 293 297 295 293 289 286 287 286 289 293 295 298 299 299 301 306 303 310 306 304 309 307 310 304 310 308 304
283 292 289 290 289 294 306 307 305 301 288 285 288 294 299 301 303 291 292 296 296 292 287 283 284 286 291 295 296 296 296 295 289 298 304 297 305 301 311 316 321 329 355
289 289 297 298 298 302 311 313 316 306 293 290 288 289 294 299 300 303 300 301 295 294 293 289 279 285 292 294 286 284 287 291 288 294 302 291 305 304 309 319 327 342 2
319 314 311 306 305 305 313 317 321 307 302 299 298 301 301 296 303 311 311 304 302 301 305 303 300 300 301 303 304 306 305 305 301 300 319 292 300 307 312 318 326 344 360
311 320 325 322 313 307 315 321 324 310 307 308 308 303 305 308 310 315 311 305 306 307 310 314 314 315 313 315 320 312 298 293 295 295 302 305 297 318 328 333 355 357 357